Content
SEND FEEDBACK

Daily
Averages
Monthly
Summary
United States of America

ST. LOUIS, MISSOURI


Home > North America > United States > Missouri
Elevation: 535 feet     Latitude: 38 45N     Longitude: 090 22W

WEATHER
 
SELECT A DAY
Number of Records: 196,207;   Date Range: 1/1/95 - 7/7/14
 
SHARE

PRINT THIS DATA

[ ← Previous Day ]
WEATHER ALMANAC - JULY 18, 2013
[ Next Day → ]
[ °C ]   °F
Weather ElementAverageHighLow
Temperature84.5 °F93.9 °F (1:54 pm)73 °F (3:54 am)
Dewpoint71.6 °F75 °F (8:54 pm)69.1 °F (1:54 pm)
Humidity67.5 %93 % (3:54 am)44 % (1:54 pm)
Barometer30.09 in30.18 in (1:54 am)30.00 in (6:54 pm)
Wind Speed2.4 mph6.9 mph (4:54 pm)
Weather ElementAverage
Visibility8.6 mi
Wind DirectionENE (82.2 °)

Weather ElementTotal
Precipitation---
Cooling Degree Days18.5 (Base 65)
Growing Degree Days33.5 (Base 50)
Averaged from 23 records on July 18, 2013
WEATHER CONDITIONS BREAKOUT
WIND DIRECTION BREAKOUT
WEATHER BY HOUR - JULY 18, 2013
[ °C ]   °F
Local TimeTemperatureDewpointHumidityBarometerVisibilityWind DirectionWind SpeedGust SpeedPrecipitationEventsConditions
1:54 AM75.0 °F72.0 °F90 %30.18 in7.0 miCalmClear
2:54 AM73.9 °F71.1 °F91 %30.16 in6.0 miCalmClear
3:54 AM73.0 °F71.1 °F93 %30.15 in5.0 miCalmClear
4:54 AM73.0 °F71.1 °F93 %30.14 in5.0 miCalmClear
5:54 AM73.0 °F71.1 °F93 %30.15 in4.0 miCalmClear
6:54 AM79.0 °F71.1 °F77 %30.15 in7.0 miCalmClear
7:54 AM84.0 °F73.0 °F69 %30.16 in7.0 miCalmClear
8:54 AM82.9 °F73.0 °F72 %30.16 in10.0 miCalmClear
9:54 AM86.0 °F73.0 °F65 %30.16 in10.0 miCalmPartly Cloudy
10:54 AM89.1 °F72.0 °F57 %30.14 in10.0 miVariable4.6 mphScattered Clouds
11:54 AM91.0 °F72.0 °F53 %30.14 in10.0 miVariable3.5 mphScattered Clouds
12:54 PM91.9 °F71.1 °F50 %30.11 in10.0 miSW (230°)4.6 mphPartly Cloudy
1:54 PM93.9 °F69.1 °F44 %30.08 in10.0 miWSW (250°)5.8 mphScattered Clouds
2:54 PM93.0 °F69.1 °F45 %30.05 in10.0 miCalmScattered Clouds
3:54 PM93.9 °F70.0 °F46 %30.03 in10.0 miVariable4.6 mphMostly Cloudy
4:54 PM93.9 °F70.0 °F46 %30.01 in10.0 miWest (260°)6.9 mphMostly Cloudy
5:54 PM93.0 °F70.0 °F47 %30.01 in10.0 miWSW (250°)4.6 mphMostly Cloudy
6:54 PM91.0 °F71.1 °F52 %30.00 in10.0 miCalmMostly Cloudy
7:54 PM88.0 °F73.9 °F63 %30.00 in10.0 miSSE (160°)3.5 mphClear
8:54 PM82.0 °F75.0 °F79 %30.00 in8.0 miSouth (170°)3.5 mphClear
9:54 PM81.0 °F73.0 °F77 %30.00 in9.0 miSouth (170°)3.5 mphClear
10:54 PM82.0 °F73.0 °F74 %30.00 in10.0 miSouth (190°)5.8 mphClear
11:54 PM80.1 °F72.0 °F76 %30.00 in10.0 miSSW (210°)4.6 mphClear
Hourly data recorded from KSUS, located miles away from St. Louis, Missouri







STORIES FROM OUR PARTNERS